RH
90 96 93 91 91 91 92 91 91 92 92 90 91 92 92 90 92 93 92 91 87 83 79 80 81 80 79 81 84 88 90 90 89 88 84 80 78 78 80 85 83 79 85
87 95 94 91 91 90 91 91 91 92 92 91 92 93 94 93 93 93 92 90 87 82 78 79 79 78 80 84 89 89 89 90 89 86 84 80 77 77 82 86 86 83 84
93 94 91 92 91 90 90 90 91 92 92 91 92 93 93 94 94 93 92 91 88 82 78 77 76 77 81 88 90 90 90 89 88 87 85 82 79 78 81 87 89 86 85
92 95 92 92 91 91 91 91 92 92 92 92 92 92 93 93 94 93 93 92 88 83 77 78 77 78 84 88 89 89 88 88 86 80 79 75 72 79 79 82 82 83 82
92 94 92 93 92 91 92 92 93 94 94 94 93 91 92 93 93 93 93 92 88 83 78 79 81 84 89 89 88 87 84 83 82 73 77 85 84 76 79 82 83 85 87
93 94 97 95 93 91 92 93 94 94 95 95 94 92 91 92 92 94 93 91 87 84 81 82 84 88 90 89 88 85 82 80 82 79 75 84 82 80 83 86 88 88 91
93 97 96 96 93 92 92 93 94 94 94 94 94 93 92 92 93 94 93 92 89 88 87 87 88 88 87 85 84 83 82 83 71 71 74 86 93 85 81 84 87 88 89
90 97 96 95 94 93 93 94 94 94 94 94 94 93 93 92 93 94 93 92 92 94 93 89 87 86 83 82 82 83 82 82 69 72 78 93 91 83 81 84 89 92 89
89 97 97 95 93 95 96 96 95 94 94 94 94 93 93 93 93 94 94 93 93 94 92 89 87 85 83 81 84 84 84 86 72 76 72 93 90 83 81 83 85 87 88
90 97 96 94 97 97 96 96 96 94 94 94 94 94 94 93 93 94 94 93 93 92 91 89 87 85 84 84 82 85 88 86 68 71 80 93 91 82 80 82 83 86 87
86 94 98 95 92 95 97 95 95 94 94 94 94 94 95 97 97 96 96 94 92 92 90 89 87 85 86 83 85 88 89 73 66 78 82 90 89 78 78 83 89 90 88
84 90 94 97 97 96 89 96 97 94 95 95 96 96 98 98 98 94 96 95 93 92 90 90 88 88 84 87 84 81 79 69 67 83 86 92 90 81 80 86 90 90 91
71 78 84 94 96 96 89 94 97 97 98 98 97 98 98 95 98 99 99 98 98 93 97 94 93 92 89 87 79 77 75 70 80 80 85 92 92 84 80 85 87 87 91
74 75 76 82 94 94 88 97 95 97 97 98 97 97 98 99 99 99 99 99 98 98 97 97 98 95 91 82 76 71 75 74 84 84 94 96 95 89 81 83 84 86 89
78 74 77 74 81 84 91 91 93 93 93 91 94 94 91 94 93 97 98 99 98 98 97 97 96 92 88 82 78 76 76 78 81 87 96 95 95 93 87 81 81 83 86
65 74 74 72 70 73 77 85 85 85 86 87 87 89 87 82 86 87 94 96 97 93 96 92 92 92 89 85 79 78 78 75 80 86 95 97 95 95 94 88 84 82 83
56 69 76 74 68 68 70 79 76 78 80 81 80 84 84 77 86 80 87 88 88 87 89 92 92 91 91 85 83 82 81 77 80 87 92 94 95 95 95 94 92 88 86
51 65 74 67 71 70 64 77 71 72 76 75 75 80 82 73 77 80 81 83 83 83 83 82 90 90 91 91 88 89 88 84 81 82 94 95 96 93 99 95 95 92 91
44 59 76 72 75 72 67 75 73 73 76 72 74 76 79 76 74 79 75 81 83 80 84 80 88 89 89 88 84 90 94 92 88 80 88 94 96 96 97 97 95 96 96
49 59 70 74 75 74 70 69 80 76 75 75 75 75 78 76 74 79 79 80 81 79 81 80 79 88 91 86 79 89 96 96 95 95 91 90 95 96 96 96 97 98 99
66 63 67 76 77 78 77 76 81 88 76 80 73 73 78 77 78 75 81 88 88 84 77 76 77 83 96 95 96 97 97 96 96 97 98 97 97 98 98 98 99 99 98
38 68 67 71 77 78 77 74 73 75 88 74 77 74 76 79 78 78 75 89 85 88 85 85 84 95 95 96 96 96 95 94 96 97 98 98 97 98 97 97 98 99 99
34 69 68 69 78 76 76 82 95 93 96 96 91 83 80 81 80 77 79 81 89 86 85 91 90 92 96 98 94 94 100 98 96 98 98 99 98 99 98 97 96 97 98
35 60 68 70 78 77 79 85 82 82 81 77 83 79 85 86 87 83 82 86 89 92 93 94 94 94 96 97 98 98 96 94 96 96 96 97 98 99 98 98 98 97 97
61 68 74 83 82 85 82 82 83 85 84 94 95 94 92 93 88 88 87 90 91 93 94 95 96 96 98 97 98 100 100 99 98 96 98 96 96 96 98 98 98 98 97
91 90 84 78 80 83 89 89 87 87 95 96 96 95 98 96 97 95 92 93 92 93 94 94 96 96 96 97 99 99 99 99 99 99 100 98 98 96 96 98 98 98 98
Wind_Speed
5 8 13 16 15 15 15 14 13 14 14 15 16 16 16 16 15 15 15 15 14 14 16 16 17 17 18 19 18 18 17 17 17 17 16 16 18 19 17 14 14 12 15
14 11 13 17 16 15 15 15 14 14 14 15 15 16 15 15 15 14 14 14 13 14 16 16 17 17 18 18 15 15 16 16 16 16 17 18 17 17 17 14 12 11 13
14 12 12 16 16 16 15 16 15 14 14 14 14 14 15 15 14 13 12 12 13 13 15 15 16 17 18 16 14 13 12 14 13 13 15 8 9 16 16 15 13 12 14
15 13 12 16 17 16 15 15 16 15 14 13 13 14 14 14 14 13 11 12 12 13 14 14 15 15 15 13 12 12 10 9 9 8 4 7 10 15 15 16 15 14 15
12 12 13 16 17 17 16 14 15 16 14 13 13 13 14 14 14 13 11 11 11 11 13 12 13 14 12 12 11 11 8 6 5 8 4 5 6 12 14 14 13 13 12
11 10 15 16 16 17 16 15 15 15 14 13 12 12 12 13 13 12 12 11 11 11 11 10 11 11 11 10 9 8 6 5 2 2 5 5 8 15 14 13 12 12 11
12 11 13 16 16 17 17 16 16 15 14 14 13 12 11 12 11 10 11 11 11 11 10 8 8 10 10 10 8 6 6 6 5 2 7 4 5 16 16 13 12 11 11
14 12 12 17 17 17 17 16 15 16 14 14 14 13 12 11 12 12 10 11 11 11 10 8 7 7 8 8 5 3 4 4 3 5 6 4 9 15 16 15 13 11 11
11 10 9 10 13 15 15 14 14 15 15 13 13 12 12 11 10 12 13 11 12 11 12 10 8 5 4 3 1 1 4 4 3 4 7 5 12 13 14 15 13 12 11
11 10 13 12 9 10 10 13 14 13 14 14 12 12 12 11 11 10 11 12 11 11 11 11 8 5 2 2 4 5 2 2 1 5 4 4 12 14 14 14 14 13 11
7 11 11 14 14 12 9 11 14 14 13 13 12 12 10 5 6 8 6 10 11 10 10 10 9 6 3 6 7 7 7 2 2 2 4 9 12 14 14 12 11 11 11
12 12 12 11 13 14 9 10 9 9 7 7 7 8 6 6 5 6 6 9 10 9 9 8 8 7 4 2 3 5 2 3 3 3 3 12 13 15 14 12 11 13 12
17 11 12 11 10 12 10 9 6 5 5 5 8 8 6 5 5 4 3 3 3 7 4 5 5 4 5 3 4 4 3 2 2 2 4 11 11 12 12 12 13 12 11
16 16 15 13 12 11 7 8 9 8 7 6 7 9 7 5 5 4 4 4 4 3 5 4 3 3 5 5 5 5 5 1 2 2 3 7 8 10 13 14 14 13 13
15 16 17 16 15 13 10 8 8 9 9 9 8 9 8 7 8 6 5 5 5 4 4 4 4 4 5 5 5 5 5 3 4 2 3 10 10 10 12 14 13 14 13
16 17 17 17 16 15 12 12 10 9 9 9 9 9 11 8 7 8 8 7 6 6 5 5 5 5 5 5 5 5 6 5 5 4 3 5 10 9 10 12 13 14 14
19 19 20 20 18 17 15 12 10 9 9 10 10 12 13 10 9 10 8 8 8 7 7 5 5 4 4 3 5 5 5 6 5 6 5 4 4 7 9 9 10 11 13
17 19 19 16 18 17 17 13 10 10 10 10 10 10 14 13 12 9 8 8 8 7 7 6 5 4 5 5 5 6 5 5 5 5 4 4 4 4 6 9 9 11 12
18 20 18 19 19 20 16 11 12 11 10 9 9 10 14 14 12 10 8 8 8 7 7 8 5 5 5 5 7 4 4 4 4 2 5 6 6 5 3 6 9 9 10
14 20 20 18 19 19 12 10 7 8 9 9 10 10 14 12 14 12 8 9 9 8 8 8 8 6 4 7 5 1 2 1 2 3 4 2 3 5 4 3 3 4 9
7 15 19 19 19 14 12 12 10 12 11 9 10 14 14 14 15 13 9 8 10 10 11 12 9 9 4 4 4 2 0 1 1 0 2 1 2 2 2 1 2 3 4
14 15 17 19 17 16 13 13 10 10 7 10 9 11 14 15 15 13 13 10 12 8 10 12 11 4 4 5 4 2 1 2 2 3 2 3 3 1 2 3 2 3 4
10 14 16 18 19 18 15 9 3 4 3 4 6 9 11 15 16 16 14 12 10 9 10 9 10 7 5 3 4 5 3 5 0 1 2 3 4 3 4 4 4 4 3
11 11 13 15 16 15 14 12 15 11 11 11 9 9 10 13 14 15 14 12 11 8 8 8 7 6 5 5 1 2 3 4 4 2 1 2 3 4 4 4 4 4 4
9 9 9 9 11 10 14 14 13 11 9 3 3 7 8 9 12 14 14 13 12 9 8 9 8 7 4 4 4 3 1 1 1 2 3 2 1 4 4 4 3 3 4
6 7 9 10 8 8 11 11 15 14 8 6 5 7 5 6 6 9 12 12 11 10 10 9 8 8 10 5 5 5 5 4 4 3 3 3 4 3 2 4 4 3 3
Wind_Direction
182 160 154 138 133 128 122 118 113 108 103 100 96 94 97 100 92 90 91 88 91 96 100 101 101 101 101 100 98 98 96 91 86 84 88 96 98 95 91 85 83 84 85
141 155 157 141 137 132 130 126 119 112 107 103 100 97 94 97 97 96 96 97 97 99 101 104 105 104 102 97 92 97 99 93 86 84 85 92 96 98 94 91 87 87 92
141 150 155 144 140 136 138 131 124 119 115 111 106 103 101 102 101 99 98 98 98 99 103 105 105 107 105 100 94 89 93 95 91 95 98 97 100 103 101 98 92 89 91
142 146 153 150 142 140 141 135 129 127 122 119 115 111 108 106 106 102 101 101 105 108 111 110 106 104 101 98 96 101 109 110 90 98 96 116 113 114 112 110 107 104 105
139 146 155 149 145 143 143 140 135 131 129 130 129 125 122 119 117 115 111 108 115 117 118 115 109 104 100 104 111 115 117 97 83 103 125 134 122 123 121 118 119 117 115
142 147 151 147 147 146 147 144 139 136 138 138 134 130 130 127 127 127 125 124 124 123 121 120 118 114 111 112 112 110 92 52 39 162 148 158 134 135 134 128 126 120 115
146 148 153 147 150 150 151 149 145 145 146 144 141 141 137 132 133 132 132 130 131 131 133 131 128 127 127 123 114 95 60 18 17 114 143 153 148 142 137 132 129 126 125
146 147 154 153 152 154 154 153 153 152 153 151 149 149 146 149 147 143 141 140 136 135 138 143 148 144 131 124 112 75 59 43 28 112 131 161 165 150 146 142 142 138 132
133 135 152 159 158 155 155 158 160 157 155 156 156 152 151 154 153 154 152 151 148 151 154 156 161 161 152 138 170 316 39 8 34 152 159 172 172 161 156 151 148 143 141
138 147 157 161 161 160 165 162 164 164 158 159 159 158 153 158 159 164 157 155 160 160 161 162 166 185 209 270 302 309 132 170 167 169 162 174 177 173 169 161 155 150 148
154 164 166 166 167 170 167 172 166 168 161 160 163 160 152 156 162 167 174 165 163 165 173 168 165 174 252 298 313 320 352 328 301 154 157 177 181 178 176 169 156 148 152
181 182 174 174 170 168 171 169 165 168 167 166 165 164 157 162 160 165 173 175 167 172 177 175 174 178 197 283 299 311 313 327 311 162 154 169 187 186 181 167 163 166 164
187 174 180 175 175 172 174 169 166 167 162 168 167 166 160 162 165 166 164 176 173 176 169 175 190 192 202 217 265 288 308 338 306 160 155 178 199 191 181 177 183 175 170
185 182 179 177 174 181 166 177 172 169 169 173 181 173 164 165 175 172 173 170 169 183 174 182 207 218 227 231 240 274 302 278 299 130 153 194 200 202 191 196 192 184 185
182 185 184 177 179 180 168 180 181 182 177 176 177 183 174 176 180 170 175 175 179 168 184 197 195 211 233 238 243 234 264 167 193 179 168 203 204 207 203 208 203 199 196
187 188 181 185 182 179 181 182 184 183 179 175 179 186 186 184 181 185 178 184 186 185 190 190 193 196 225 213 239 233 215 192 153 173 190 203 214 211 212 215 211 208 206
192 185 185 184 180 184 188 184 184 187 180 184 185 185 189 187 185 187 184 188 191 190 184 190 204 210 228 236 235 226 219 207 184 171 189 202 215 222 213 223 224 211 212
189 185 184 182 183 186 192 187 186 188 187 188 188 187 191 193 189 185 191 194 189 184 183 193 187 198 216 207 219 225 218 206 207 188 186 183 201 221 226 226 224 216 217
185 185 181 182 184 189 193 185 191 188 193 192 188 188 193 195 192 193 194 196 185 189 185 191 193 181 200 217 223 222 240 220 218 190 189 191 199 204 215 233 236 234 233
178 182 181 181 184 188 187 185 185 192 196 194 194 193 189 196 197 197 197 185 189 189 199 197 197 190 187 206 206 158 38 351 214 218 216 163 222 197 202 231 254 252 253
181 183 183 179 186 175 183 187 188 194 197 198 198 193 188 194 198 200 200 186 187 197 198 198 196 190 199 145 108 58 57 308 238 148 22 56 95 78 72 177 230 235 252
176 191 187 187 179 183 186 191 199 192 199 204 202 195 191 193 197 197 200 197 200 193 197 197 186 153 173 163 144 114 213 293 245 226 220 214 217 205 210 200 208 260 246
179 179 192 183 183 186 183 174 106 97 105 159 198 201 195 195 197 200 199 197 198 198 202 197 185 183 168 176 176 145 150 223 165 205 223 238 248 255 257 259 247 239 263
207 176 187 179 178 183 171 174 186 195 196 209 193 200 196 194 196 198 195 197 196 198 190 186 185 176 154 168 138 95 61 139 177 277 277 246 251 255 265 267 262 256 259
156 155 153 159 167 171 179 185 190 203 209 157 167 178 191 193 199 195 192 190 197 192 188 175 179 178 186 167 174 147 185 102 27 147 234 243 287 234 237 242 262 275 265
127 125 128 140 162 168 181 188 194 201 181 163 178 195 189 193 188 200 194 193 200 189 182 188 176 184 194 180 175 172 171 164 181 166 206 239 229 267 268 243 241 235 244